| time (UTC) | temp F | wind direction | speed knots | gust knots | rain 1hr in | rain 24hr in | rain mn in | humidity % | barometer mb |
| 20260505212013 | 62 | 344 | 6.1 | 12.2 | 0.20 | 1.26 | 0.25 | 82 | 997.8 |
| 20260505211543 | 63 | 336 | 7.0 | 14.8 | 0.04 | 0.25 | 0.25 | 79 | 997.9 |
| 20260505211517 | 63 | 291 | 7.0 | 14.8 | 0.20 | 1.26 | 0.25 | 79 | 997.9 |
| 20260505211028 | 65 | 325 | 6.1 | 14.8 | 0.08 | 1.14 | 0.23 | 74 | 997.5 |
| 20260505210515 | 67 | 298 | 7.0 | 19.1 | 0.04 | 1.10 | 0.22 | 70 | 997.2 |
| 20260505210050 | 68 | 325 | 7.0 | 19.1 | 0.00 | 0.21 | 0.21 | 65 | 996.8 |
| 20260505210019 | 69 | 319 | 7.0 | 19.1 | 0.00 | 1.06 | 0.21 | 64 | 996.8 |
| 20260505205531 | 69 | 303 | 8.7 | 19.1 | 0.00 | 1.06 | 0.21 | 64 | 996.0 |
| 20260505205017 | 69 | 289 | 8.7 | 18.2 | 0.00 | 1.06 | 0.21 | 64 | 996.0 |
| 20260505204556 | 69 | 305 | 7.8 | 18.2 | 0.00 | 0.21 | 0.21 | 65 | 996.3 |
| 20260505204521 | 69 | 303 | 8.7 | 18.2 | 0.00 | 1.06 | 0.21 | 65 | 996.3 |
| 20260505204032 | 70 | 291 | 5.2 | 16.5 | 0.00 | 1.06 | 0.21 | 66 | 996.2 |
| 20260505203516 | 69 | 298 | 4.3 | 16.5 | 0.00 | 1.06 | 0.21 | 68 | 996.2 |
| 20260505203047 | 67 | 299 | 6.1 | 20.9 | 0.00 | 0.21 | 0.21 | 69 | 996.3 |
| 20260505203016 | 68 | 326 | 7.0 | 20.9 | 0.00 | 1.06 | 0.21 | 69 | 996.2 |
| 20260505202526 | 68 | 260 | 5.2 | 20.9 | 0.00 | 1.06 | 0.21 | 70 | 996.5 |
| 20260505202031 | 68 | 289 | 6.1 | 14.8 | 0.00 | 1.06 | 0.21 | 70 | 996.4 |
| 20260505201539 | 67 | 310 | 6.1 | 14.8 | 0.00 | 0.21 | 0.21 | 71 | 996.5 |
| 20260505201514 | 68 | 274 | 7.0 | 14.8 | 0.00 | 1.06 | 0.21 | 71 | 996.4 |
| 20260505201023 | 67 | 291 | 3.5 | 7.8 | 0.00 | 1.06 | 0.21 | 74 | 996.5 |
| 20260505200527 | 67 | 277 | 4.3 | 10.4 | 0.00 | 1.06 | 0.21 | 75 | 996.4 |
| 20260505200046 | 66 | 282 | 2.6 | 10.4 | 0.00 | 0.21 | 0.21 | 77 | 996.5 |
| 20260505200011 | 67 | 283 | 3.5 | 9.6 | 0.00 | 1.06 | 0.21 | 77 | 996.5 |
| 20260505195524 | 66 | 277 | 2.6 | 7.8 | 0.00 | 1.06 | 0.21 | 78 | 996.7 |
| 20260505195028 | 66 | 260 | 2.6 | 7.8 | 0.00 | 1.06 | 0.21 | 78 | 996.9 |
| 20260505194546 | 66 | 272 | 0.9 | 7.8 | 0.00 | 0.21 | 0.21 | 78 | 997.1 |
| 20260505194513 | 66 | 267 | 1.7 | 7.8 | 0.00 | 1.06 | 0.21 | 78 | 997.1 |
| 20260505194025 | 67 | 243 | 3.5 | 7.0 | 0.00 | 1.06 | 0.21 | 78 | 997.1 |
| 20260505193513 | 66 | 273 | 2.6 | 9.6 | 0.00 | 1.06 | 0.21 | 79 | 997.1 |
| 20260505193049 | 65 | 293 | 1.7 | 9.6 | 0.00 | 0.21 | 0.21 | 80 | 997.1 |
| 20260505193017 | 66 | 295 | 2.6 | 9.6 | 0.00 | 1.06 | 0.21 | 80 | 997.1 |
| 20260505192528 | 65 | 296 | 1.7 | 6.1 | 0.00 | 1.06 | 0.21 | 81 | 997.3 |
| 20260505192014 | 65 | 293 | 3.5 | 6.1 | 0.00 | 1.06 | 0.21 | 82 | 997.4 |
| 20260505191543 | 64 | 274 | 1.7 | 5.2 | 0.00 | 0.21 | 0.21 | 82 | 997.5 |
| 20260505191515 | 64 | 274 | 2.6 | 5.2 | 0.00 | 1.06 | 0.21 | 82 | 997.4 |
| 20260505191028 | 64 | 294 | 1.7 | 6.1 | 0.00 | 1.06 | 0.21 | 83 | 997.7 |
| 20260505190513 | 64 | 275 | 1.7 | 5.2 | 0.00 | 1.06 | 0.21 | 83 | 997.7 |
| 20260505190044 | 63 | 298 | 1.7 | 4.3 | 0.00 | 0.21 | 0.21 | 86 | 997.6 |
| 20260505190016 | 64 | 243 | 0.9 | 4.3 | 0.00 | 1.06 | 0.21 | 87 | 997.5 |
| 20260505185526 | 63 | 303 | 1.7 | 4.3 | 0.00 | 1.06 | 0.21 | 87 | 997.8 |
| 20260505185030 | 62 | 277 | 0.9 | 5.2 | 0.00 | 1.06 | 0.21 | 87 | 997.9 |
| 20260505184543 | 61 | 284 | 0.9 | 5.2 | 0.00 | 0.21 | 0.21 | 87 | 997.9 |
| 20260505184516 | 61 | 283 | 1.7 | 5.2 | 0.00 | 1.06 | 0.21 | 87 | 997.8 |
| 20260505184022 | 61 | 290 | 0.9 | 2.6 | 0.12 | 1.06 | 0.21 | 89 | 997.9 |
| 20260505183527 | 60 | 287 | 0.0 | 1.7 | 0.24 | 1.06 | 0.21 | 89 | 997.9 |
| 20260505183037 | 59 | 287 | 0.0 | 2.6 | 0.06 | 0.21 | 0.21 | 89 | 998.2 |
| 20260505183013 | 60 | 286 | 0.9 | 2.6 | 0.31 | 1.06 | 0.21 | 89 | 998.1 |
| 20260505182526 | 59 | 291 | 0.0 | 2.6 | 0.39 | 1.06 | 0.21 | 89 | 998.1 |
| 20260505182028 | 59 | 296 | 0.0 | 1.7 | 0.39 | 1.06 | 0.21 | 89 | 998.2 |
| 20260505181540 | 58 | 296 | 0.0 | 1.7 | 0.08 | 0.21 | 0.21 | 90 | 998.4 |
| 20260505181513 | 59 | 296 | 0.0 | 1.7 | 0.39 | 1.06 | 0.21 | 90 | 998.3 |
| 20260505181025 | 59 | 297 | 0.9 | 1.7 | 0.43 | 1.06 | 0.21 | 90 | 998.3 |
| 20260505180532 | 58 | 296 | 0.0 | 2.6 | 0.47 | 1.06 | 0.21 | 90 | 998.3 |
| 20260505180016 | 58 | 296 | 0.9 | 2.6 | 0.51 | 1.06 | 0.21 | 90 | 998.3 |
| 20260505175527 | 58 | 305 | 0.9 | 2.6 | 0.55 | 1.06 | 0.21 | 90 | 998.4 |
| 20260505175031 | 58 | 304 | 1.7 | 2.6 | 0.55 | 1.06 | 0.21 | 90 | 998.5 |
| 20260505174557 | 57 | 311 | 0.0 | 2.6 | 0.11 | 0.21 | 0.21 | 89 | 998.7 |
| 20260505174516 | 58 | 311 | 0.9 | 2.6 | 0.55 | 1.06 | 0.21 | 89 | 998.6 |
| 20260505174028 | 58 | 312 | 0.9 | 2.6 | 0.63 | 0.94 | 0.19 | 89 | 998.7 |
| 20260505173514 | 58 | 312 | 0.0 | 3.5 | 0.59 | 0.79 | 0.16 | 89 | 998.8 |
| 20260505173046 | 58 | 314 | 1.7 | 3.5 | 0.15 | 0.15 | 0.15 | 89 | 998.7 |
| 20260505173019 | 58 | 313 | 2.6 | 3.5 | 0.75 | 0.75 | 0.15 | 89 | 998.6 |
| 20260505172532 | 58 | 334 | 0.9 | 4.3 | 0.67 | 0.67 | 0.13 | 89 | 998.6 |
| 20260505172018 | 58 | 312 | 1.7 | 5.2 | 0.67 | 0.67 | 0.13 | 89 | 998.4 |
| 20260505171549 | 58 | 320 | 1.7 | 5.2 | 0.13 | 0.13 | 0.13 | 88 | 998.7 |
| 20260505171524 | 58 | 316 | 1.7 | 5.2 | 0.67 | 0.67 | 0.13 | 88 | 998.6 |
| 20260505171035 | 59 | 301 | 0.9 | 4.3 | 0.63 | 0.63 | 0.13 | 88 | 998.6 |
| 20260505170521 | 59 | 327 | 1.7 | 4.3 | 0.59 | 0.59 | 0.12 | 87 | 998.5 |
| 20260505170048 | 58 | 304 | 2.6 | 4.3 | 0.11 | 0.11 | 0.11 | 87 | 998.7 |
| 20260505170016 | 59 | 305 | 2.6 | 4.3 | 0.55 | 0.55 | 0.11 | 87 | 998.6 |
| 20260505165528 | 59 | 289 | 0.9 | 5.2 | 0.51 | 0.51 | 0.10 | 86 | 998.6 |
| 20260505165012 | 59 | 278 | 2.6 | 7.8 | 0.51 | 0.51 | 0.10 | 85 | 998.7 |
| 20260505164548 | 59 | 293 | 1.7 | 7.8 | 0.10 | 0.10 | 0.10 | 84 | 999.0 |
| 20260505164518 | 60 | 274 | 1.7 | 7.8 | 0.51 | 0.51 | 0.10 | 84 | 998.9 |
| 20260505164028 | 61 | 284 | 1.7 | 9.6 | 0.31 | 0.31 | 0.06 | 82 | 999.0 |
| 20260505163514 | 61 | 272 | 2.6 | 9.6 | 0.16 | 0.16 | 0.03 | 79 | 998.9 |
| 20260505163049 | 61 | 286 | 3.5 | 11.3 | 0.00 | 0.00 | 0.00 | 76 | 999.0 |
| 20260505163019 | 62 | 279 | 3.5 | 11.3 | 0.00 | 0.00 | 0.00 | 76 | 998.8 |
| 20260505162530 | 63 | 267 | 5.2 | 11.3 | 0.00 | 0.00 | 0.00 | 74 | 998.8 |
| 20260505162015 | 63 | 247 | 4.3 | 10.4 | 0.00 | 0.00 | 0.00 | 73 | 998.9 |
| 20260505161554 | 63 | 327 | 2.6 | 9.6 | 0.00 | 0.00 | 0.00 | 72 | 999.1 |
| 20260505161519 | 63 | 272 | 3.5 | 9.6 | 0.00 | 0.00 | 0.00 | 72 | 998.9 |
| 20260505161029 | 64 | 311 | 5.2 | 13.9 | 0.00 | 0.00 | 0.00 | 72 | 999.1 |
| 20260505160516 | 64 | 282 | 7.0 | 13.9 | 0.00 | 0.00 | 0.00 | 71 | 999.1 |
| 20260505153058 | 66 | 283 | 2.6 | 8.7 | 0.00 | 0.03 | 0.00 | 57 | 999.0 |
| 20260505153017 | 67 | 271 | 2.6 | 8.7 | 0.00 | 0.16 | 0.00 | 57 | 998.9 |
| 20260505152520 | 66 | 280 | 3.5 | 7.0 | 0.00 | 0.16 | 0.00 | 57 | 998.8 |
| 20260505152028 | 66 | 274 | 3.5 | 6.1 | 0.00 | 0.16 | 0.00 | 57 | 999.0 |
| 20260505151550 | 64 | 265 | 3.5 | 9.6 | 0.00 | 0.03 | 0.00 | 58 | 999.3 |
| 20260505151530 | 65 | 293 | 3.5 | 9.6 | 0.00 | 0.16 | 0.00 | 58 | 999.1 |
| 20260505151014 | 64 | 291 | 3.5 | 9.6 | 0.00 | 0.16 | 0.00 | 59 | 999.2 |
| 20260505150524 | 63 | 291 | 4.3 | 8.7 | 0.00 | 0.16 | 0.00 | 59 | 999.4 |
| 20260505140531 | 61 | 296 | 0.9 | 3.5 | 0.00 | 0.24 | 0.00 | 59 | 999.7 |
| 20260505125023 | 58 | 279 | 0.0 | 0.0 | 0.00 | 0.24 | 0.00 | 63 | 1000.0 |
| 20260505124532 | 57 | 279 | 0.0 | 0.0 | 0.00 | 0.24 | 0.00 | 63 | 1000.1 |
| 20260505124515 | 57 | 279 | 0.0 | 0.0 | 0.00 | 0.05 | 0.00 | 63 | 1000.3 |
| 20260505124016 | 57 | 279 | 0.0 | 0.0 | 0.00 | 0.24 | 0.00 | 63 | 1000.0 |
| 20260505123519 | 56 | 279 | 0.0 | 0.0 | 0.00 | 0.24 | 0.00 | 65 | 1000.1 |
| 20260505123028 | 56 | 279 | 0.0 | 0.9 | 0.00 | 0.24 | 0.00 | 66 | 1000.1 |
| 20260505123010 | 55 | 279 | 0.0 | 0.9 | 0.00 | 0.05 | 0.00 | 66 | 1000.4 |
| 20260505122529 | 55 | 279 | 0.0 | 1.7 | 0.00 | 0.24 | 0.00 | 66 | 1000.3 |
| 20260505122015 | 55 | 279 | 0.9 | 1.7 | 0.00 | 0.24 | 0.00 | 66 | 1000.2 |
| 20260505121525 | 54 | 272 | 0.0 | 1.7 | 0.00 | 0.24 | 0.00 | 67 | 1000.3 |
| 20260505121509 | 54 | 272 | 0.0 | 1.7 | 0.00 | 0.05 | 0.00 | 67 | 1000.6 |
| 20260505121027 | 54 | 341 | 0.9 | 1.7 | 0.00 | 0.24 | 0.00 | 67 | 1000.3 |
| 20260505120515 | 53 | 284 | 0.9 | 2.6 | 0.00 | 0.24 | 0.00 | 68 | 1000.5 |
| 20260505120024 | 53 | 285 | 0.0 | 2.6 | 0.00 | 0.24 | 0.00 | 69 | 1000.5 |
| 20260505120005 | 52 | 285 | 0.0 | 2.6 | 0.00 | 0.05 | 0.00 | 69 | 1000.8 |
| 20260505115527 | 52 | 274 | 0.9 | 2.6 | 0.00 | 0.24 | 0.00 | 70 | 1000.6 |
| 20260505115011 | 52 | 320 | 0.9 | 2.6 | 0.00 | 0.24 | 0.00 | 70 | 1000.7 |
| 20260505114521 | 51 | 277 | 0.9 | 2.6 | 0.00 | 0.24 | 0.00 | 71 | 1000.6 |
| 20260505114502 | 51 | 277 | 0.9 | 2.6 | 0.00 | 0.05 | 0.00 | 71 | 1000.8 |
| 20260505114026 | 51 | 222 | 0.9 | 2.6 | 0.00 | 0.24 | 0.00 | 71 | 1000.6 |
| 20260505113537 | 51 | 277 | 0.9 | 2.6 | 0.00 | 0.24 | 0.00 | 72 | 1000.5 |
| 20260505113113 | 50 | 229 | 0.9 | 3.5 | 0.00 | 0.05 | 0.00 | 73 | 1000.9 |
| 20260505113019 | 50 | 247 | 0.9 | 3.5 | 0.00 | 0.24 | 0.00 | 73 | 1000.6 |
| 20260505112521 | 49 | 293 | 0.9 | 3.5 | 0.00 | 0.24 | 0.00 | 75 | 1000.7 |
| 20260505112031 | 48 | 13 | 1.7 | 5.2 | 0.00 | 0.24 | 0.00 | 76 | 1000.7 |
| 20260505111612 | 47 | 16 | 1.7 | 5.2 | 0.00 | 0.05 | 0.00 | 76 | 1000.9 |
| 20260505111513 | 47 | 49 | 1.7 | 5.2 | 0.00 | 0.24 | 0.00 | 76 | 1000.7 |
| 20260505111015 | 47 | 274 | 1.7 | 3.5 | 0.00 | 0.24 | 0.00 | 77 | 1000.7 |
| 20260505110527 | 46 | 319 | 1.7 | 3.5 | 0.00 | 0.24 | 0.00 | 77 | 1000.6 |
| 20260505110106 | 46 | 144 | 0.9 | 4.3 | 0.00 | 0.05 | 0.00 | 79 | 1000.9 |
| 20260505102023 | 43 | 33 | 2.6 | 7.0 | 0.00 | 0.24 | 0.00 | 83 | 1000.6 |
| 20260505101601 | 42 | 358 | 2.6 | 7.0 | 0.00 | 0.05 | 0.00 | 83 | 1001.0 |
| 20260505101526 | 43 | 65 | 2.6 | 7.0 | 0.00 | 0.24 | 0.00 | 83 | 1000.7 |
| 20260505101028 | 42 | 62 | 3.5 | 6.1 | 0.00 | 0.24 | 0.00 | 83 | 1000.9 |
| 20260505100521 | 42 | 38 | 2.6 | 7.0 | 0.00 | 0.24 | 0.00 | 83 | 1000.7 |
| 20260505100058 | 42 | 302 | 2.6 | 7.0 | 0.00 | 0.05 | 0.00 | 83 | 1001.1 |
| 20260505100021 | 42 | 40 | 2.6 | 7.0 | 0.00 | 0.24 | 0.00 | 83 | 1000.8 |
| 20260505095526 | 42 | 331 | 3.5 | 7.8 | 0.00 | 0.24 | 0.00 | 83 | 1001.0 |
| 20260505095019 | 42 | 345 | 3.5 | 7.8 | 0.00 | 0.24 | 0.00 | 84 | 1001.0 |
| 20260505094558 | 42 | 60 | 2.6 | 6.1 | 0.00 | 0.05 | 0.00 | 84 | 1001.3 |
| 20260505094521 | 42 | 356 | 2.6 | 6.1 | 0.00 | 0.24 | 0.00 | 84 | 1001.0 |
| 20260505094028 | 42 | 321 | 2.6 | 6.1 | 0.00 | 0.24 | 0.00 | 84 | 1001.1 |
| 20260505093519 | 42 | 60 | 3.5 | 5.2 | 0.00 | 0.24 | 0.00 | 84 | 1001.0 |
| 20260505093101 | 42 | 4 | 1.7 | 6.1 | 0.00 | 0.05 | 0.00 | 84 | 1001.3 |
| 20260505093022 | 42 | 316 | 2.6 | 6.1 | 0.00 | 0.24 | 0.00 | 84 | 1001.0 |
| 20260505092527 | 42 | 323 | 2.6 | 6.1 | 0.00 | 0.24 | 0.00 | 84 | 1001.0 |
| 20260505092018 | 42 | 8 | 3.5 | 6.1 | 0.00 | 0.24 | 0.00 | 84 | 1001.1 |
| 20260505091618 | 41 | 48 | 2.6 | 6.1 | 0.00 | 0.05 | 0.00 | 84 | 1001.5 |
| 20260505091523 | 42 | 12 | 2.6 | 6.1 | 0.00 | 0.24 | 0.00 | 84 | 1001.2 |
| 20260505091029 | 42 | 14 | 1.7 | 6.1 | 0.00 | 0.24 | 0.00 | 83 | 1001.2 |
| 20260505090522 | 42 | 45 | 2.6 | 7.0 | 0.00 | 0.24 | 0.00 | 84 | 1001.1 |
| 20260505090023 | 42 | 343 | 2.6 | 7.0 | 0.00 | 0.24 | 0.00 | 83 | 1001.1 |
| 20260505085529 | 42 | 58 | 3.5 | 7.0 | 0.00 | 0.24 | 0.00 | 83 | 1001.1 |
| 20260505085019 | 42 | 45 | 3.5 | 7.0 | 0.00 | 0.24 | 0.00 | 83 | 1001.0 |
| 20260505084603 | 42 | 14 | 2.6 | 6.1 | 0.00 | 0.05 | 0.00 | 83 | 1001.3 |
| 20260505084524 | 42 | 307 | 3.5 | 6.1 | 0.00 | 0.24 | 0.00 | 83 | 1001.1 |
| 20260505084015 | 42 | 297 | 3.5 | 6.1 | 0.00 | 0.24 | 0.00 | 83 | 1001.1 |
| 20260505083527 | 42 | 97 | 3.5 | 7.0 | 0.00 | 0.24 | 0.00 | 83 | 1001.1 |
| 20260505083106 | 42 | 38 | 2.6 | 8.7 | 0.00 | 0.05 | 0.00 | 83 | 1001.4 |
| 20260505083030 | 42 | 18 | 2.6 | 8.7 | 0.00 | 0.24 | 0.00 | 83 | 1001.2 |
| 20260505082514 | 42 | 47 | 3.5 | 8.7 | 0.00 | 0.24 | 0.00 | 83 | 1001.2 |
| 20260505082024 | 42 | 2 | 2.6 | 7.0 | 0.00 | 0.24 | 0.00 | 83 | 1001.3 |
| 20260505081605 | 42 | 324 | 2.6 | 7.0 | 0.00 | 0.05 | 0.00 | 83 | 1001.6 |
| 20260505081528 | 43 | 338 | 2.6 | 7.0 | 0.00 | 0.24 | 0.00 | 83 | 1001.4 |
| 20260505081012 | 43 | 64 | 3.5 | 6.1 | 0.00 | 0.24 | 0.00 | 83 | 1001.5 |
| 20260505080523 | 43 | 69 | 3.5 | 7.8 | 0.00 | 0.24 | 0.00 | 83 | 1001.6 |
| 20260505080120 | 42 | 85 | 3.5 | 7.8 | 0.00 | 0.05 | 0.00 | 83 | 1001.8 |
| 20260505080027 | 43 | 75 | 3.5 | 7.8 | 0.00 | 0.24 | 0.00 | 83 | 1001.5 |
| 20260505075512 | 43 | 20 | 3.5 | 6.1 | 0.00 | 0.24 | 0.00 | 82 | 1001.6 |
| 20260505075022 | 43 | 1 | 1.7 | 7.0 | 0.00 | 0.24 | 0.00 | 82 | 1001.6 |
| 20260505074607 | 43 | 37 | 2.6 | 7.0 | 0.00 | 0.05 | 0.00 | 82 | 1001.9 |
| 20260505074523 | 43 | 353 | 3.5 | 7.0 | 0.00 | 0.24 | 0.00 | 82 | 1001.6 |
| 20260505074027 | 43 | 33 | 3.5 | 6.1 | 0.00 | 0.24 | 0.00 | 82 | 1001.6 |
| 20260505073520 | 43 | 3 | 2.6 | 7.0 | 0.00 | 0.24 | 0.00 | 82 | 1001.6 |
| 20260505073101 | 43 | 350 | 2.6 | 7.0 | 0.00 | 0.05 | 0.00 | 82 | 1002.0 |
| 20260505073020 | 43 | 75 | 2.6 | 7.0 | 0.00 | 0.24 | 0.00 | 82 | 1001.7 |
| 20260505072525 | 43 | 357 | 3.5 | 7.0 | 0.00 | 0.24 | 0.00 | 82 | 1001.7 |
| 20260505072016 | 43 | 348 | 2.6 | 8.7 | 0.00 | 0.24 | 0.00 | 82 | 1001.6 |
| 20260505071605 | 43 | 309 | 2.6 | 8.7 | 0.00 | 0.05 | 0.00 | 82 | 1001.9 |
| 20260505071522 | 43 | 59 | 3.5 | 8.7 | 0.00 | 0.24 | 0.00 | 82 | 1001.6 |
| 20260505071023 | 43 | 28 | 2.6 | 6.1 | 0.00 | 0.24 | 0.00 | 82 | 1001.6 |
| 20260505070515 | 43 | 4 | 2.6 | 6.1 | 0.00 | 0.24 | 0.00 | 82 | 1001.7 |
| 20260505070058 | 42 | 71 | 2.6 | 6.1 | 0.00 | 0.05 | 0.00 | 82 | 1002.0 |
| 20260505070019 | 43 | 324 | 2.6 | 6.1 | 0.00 | 0.24 | 0.00 | 82 | 1001.7 |
| 20260505065532 | 43 | 89 | 2.6 | 7.0 | 0.00 | 0.24 | 0.00 | 82 | 1001.8 |
| 20260505065016 | 43 | 16 | 2.6 | 7.0 | 0.00 | 0.24 | 0.00 | 82 | 1001.9 |
| 20260505064558 | 42 | 15 | 2.6 | 6.1 | 0.00 | 0.05 | 0.00 | 82 | 1002.2 |
| 20260505064522 | 43 | 3 | 3.5 | 6.1 | 0.00 | 0.24 | 0.00 | 82 | 1001.9 |
| 20260505064024 | 43 | 336 | 2.6 | 6.1 | 0.00 | 0.24 | 0.00 | 82 | 1002.0 |
| 20260505063513 | 43 | 10 | 2.6 | 6.1 | 0.00 | 0.24 | 0.00 | 82 | 1001.9 |
| 20260505063128 | 43 | 39 | 2.6 | 6.1 | 0.00 | 0.05 | 0.00 | 81 | 1002.2 |
| 20260505063016 | 43 | 25 | 2.6 | 6.1 | 0.00 | 0.24 | 0.00 | 81 | 1001.9 |
| 20260505062518 | 43 | 286 | 3.5 | 6.1 | 0.00 | 0.24 | 0.00 | 81 | 1002.0 |
| 20260505062027 | 43 | 332 | 2.6 | 7.0 | 0.00 | 0.24 | 0.00 | 81 | 1002.0 |
| 20260505061615 | 43 | 333 | 3.5 | 7.0 | 0.00 | 0.05 | 0.00 | 81 | 1002.5 |
| 20260505061512 | 43 | 33 | 3.5 | 7.0 | 0.00 | 0.24 | 0.00 | 81 | 1002.2 |
| 20260505061015 | 43 | 68 | 3.5 | 7.0 | 0.00 | 0.24 | 0.00 | 81 | 1002.3 |
| 20260505060525 | 43 | 16 | 3.5 | 6.1 | 0.00 | 0.24 | 0.00 | 81 | 1002.4 |
| 20260505060057 | 43 | 25 | 2.6 | 7.0 | 0.00 | 0.05 | 0.00 | 81 | 1002.8 |
| 20260505060027 | 43 | 360 | 2.6 | 7.0 | 0.00 | 0.24 | 0.00 | 81 | 1002.5 |
| 20260505055021 | 44 | 66 | 4.3 | 7.0 | 0.00 | 0.24 | 0.00 | 81 | 1002.6 |
| 20260505054551 | 43 | 295 | 3.5 | 7.0 | 0.00 | 0.05 | 0.00 | 81 | 1003.0 |
| 20260505054526 | 44 | 335 | 3.5 | 7.0 | 0.00 | 0.24 | 0.00 | 81 | 1002.7 |
| 20260505054037 | 44 | 283 | 2.6 | 5.2 | 0.00 | 0.24 | 0.00 | 81 | 1002.8 |
| 20260505053524 | 44 | 330 | 2.6 | 5.2 | 0.00 | 0.24 | 0.00 | 81 | 1002.8 |
| 20260505053053 | 43 | 45 | 2.6 | 5.2 | 0.00 | 0.05 | 0.00 | 81 | 1003.2 |
| 20260505053028 | 44 | 323 | 2.6 | 5.2 | 0.00 | 0.24 | 0.00 | 81 | 1002.8 |
| 20260505052514 | 44 | 348 | 2.6 | 5.2 | 0.00 | 0.24 | 0.00 | 81 | 1002.8 |
| 20260505052026 | 44 | 5 | 2.6 | 6.1 | 0.00 | 0.24 | 0.00 | 81 | 1002.9 |
| 20260505051614 | 43 | 358 | 1.7 | 6.1 | 0.00 | 0.05 | 0.00 | 81 | 1003.3 |
| 20260505051515 | 44 | 353 | 1.7 | 6.1 | 0.00 | 0.24 | 0.00 | 81 | 1003.0 |
| 20260505051021 | 44 | 52 | 1.7 | 5.2 | 0.00 | 0.24 | 0.00 | 81 | 1003.1 |
| 20260505050533 | 44 | 5 | 2.6 | 5.2 | 0.00 | 0.24 | 0.00 | 81 | 1003.1 |
| 20260505041556 | 43 | 16 | 1.7 | 4.3 | 0.00 | 0.05 | 0.00 | 82 | 1004.0 |
| 20260505041530 | 44 | 165 | 1.7 | 4.3 | 0.00 | 0.24 | 0.00 | 82 | 1003.7 |
| 20260505041015 | 44 | 33 | 0.9 | 4.3 | 0.00 | 0.24 | 0.00 | 82 | 1003.5 |
| 20260505040528 | 44 | 352 | 1.7 | 4.3 | 0.00 | 0.24 | 0.00 | 82 | 1003.4 |
| 20260505040054 | 43 | 335 | 1.7 | 4.3 | 0.00 | 0.05 | 0.05 | 82 | 1003.9 |
| 20260505040011 | 44 | 329 | 2.6 | 4.3 | 0.00 | 0.24 | 0.05 | 82 | 1003.5 |
| 20260505035519 | 44 | 322 | 1.7 | 3.5 | 0.00 | 0.24 | 0.05 | 82 | 1003.7 |
| 20260505035030 | 44 | 139 | 0.9 | 3.5 | 0.00 | 0.24 | 0.05 | 82 | 1003.7 |
| 20260505034558 | 44 | 311 | 0.9 | 4.3 | 0.00 | 0.05 | 0.05 | 82 | 1004.0 |
| 20260505034514 | 44 | 81 | 1.7 | 4.3 | 0.00 | 0.24 | 0.05 | 82 | 1003.7 |
| 20260505034021 | 44 | 342 | 1.7 | 4.3 | 0.00 | 0.24 | 0.05 | 82 | 1003.8 |
| 20260505033515 | 44 | 272 | 1.7 | 3.5 | 0.00 | 0.24 | 0.05 | 82 | 1003.8 |
| 20260505033059 | 44 | 278 | 0.9 | 5.2 | 0.00 | 0.05 | 0.05 | 82 | 1004.1 |
| 20260505033018 | 44 | 293 | 1.7 | 5.2 | 0.00 | 0.24 | 0.05 | 82 | 1003.8 |
| 20260505032524 | 44 | 6 | 2.6 | 5.2 | 0.00 | 0.24 | 0.05 | 82 | 1003.8 |
| 20260505032035 | 45 | 298 | 1.7 | 3.5 | 0.00 | 0.24 | 0.05 | 82 | 1003.7 |
| 20260505031605 | 44 | 278 | 0.0 | 3.5 | 0.00 | 0.05 | 0.05 | 82 | 1004.2 |
| 20260505031521 | 44 | 289 | 0.0 | 2.6 | 0.00 | 0.24 | 0.05 | 82 | 1003.9 |
| 20260505031023 | 44 | 319 | 0.9 | 2.6 | 0.00 | 0.24 | 0.05 | 82 | 1004.0 |
| 20260505030537 | 44 | 308 | 1.7 | 4.3 | 0.00 | 0.24 | 0.05 | 82 | 1003.8 |
| 20260505030103 | 44 | 59 | 1.7 | 4.3 | 0.00 | 0.05 | 0.05 | 83 | 1004.2 |
| 20260505030021 | 44 | 343 | 2.6 | 4.3 | 0.00 | 0.24 | 0.05 | 83 | 1003.9 |
| 20260505025527 | 44 | 6 | 1.7 | 4.3 | 0.00 | 0.24 | 0.05 | 83 | 1003.8 |
| 20260505025013 | 44 | 10 | 2.6 | 5.2 | 0.00 | 0.24 | 0.05 | 84 | 1003.9 |
| 20260505024606 | 44 | 303 | 1.7 | 5.2 | 0.00 | 0.05 | 0.05 | 84 | 1004.2 |
| 20260505024525 | 44 | 4 | 2.6 | 5.2 | 0.00 | 0.24 | 0.05 | 84 | 1003.9 |
| 20260505024011 | 44 | 298 | 1.7 | 3.5 | 0.00 | 0.24 | 0.05 | 84 | 1004.1 |
| 20260505023526 | 44 | 360 | 0.9 | 2.6 | 0.00 | 0.24 | 0.05 | 84 | 1004.1 |
| 20260505023110 | 44 | 311 | 0.0 | 2.6 | 0.00 | 0.05 | 0.05 | 85 | 1004.5 |
| 20260505023029 | 44 | 311 | 0.9 | 2.6 | 0.00 | 0.24 | 0.05 | 85 | 1004.1 |
| 20260505022515 | 44 | 346 | 0.9 | 2.6 | 0.00 | 0.24 | 0.05 | 85 | 1004.2 |
| 20260505022012 | 44 | 9 | 0.9 | 2.6 | 0.00 | 0.24 | 0.05 | 85 | 1004.3 |
| 20260505021604 | 43 | 311 | 0.9 | 1.7 | 0.00 | 0.05 | 0.05 | 85 | 1004.5 |
| 20260505021523 | 44 | 311 | 0.9 | 1.7 | 0.00 | 0.24 | 0.05 | 85 | 1004.2 |
| 20260505021010 | 44 | 286 | 0.0 | 2.6 | 0.00 | 0.24 | 0.05 | 85 | 1004.2 |
| 20260505020523 | 44 | 315 | 0.9 | 1.7 | 0.00 | 0.24 | 0.05 | 85 | 1004.2 |
| 20260505020106 | 44 | 310 | 0.9 | 2.6 | 0.00 | 0.05 | 0.05 | 85 | 1004.6 |
| 20260505020024 | 44 | 315 | 0.9 | 2.6 | 0.00 | 0.24 | 0.05 | 85 | 1004.3 |
| 20260505015531 | 44 | 328 | 0.9 | 2.6 | 0.00 | 0.24 | 0.05 | 85 | 1004.2 |
| 20260505015016 | 44 | 313 | 0.9 | 2.6 | 0.00 | 0.24 | 0.05 | 85 | 1004.3 |
| 20260505014601 | 44 | 308 | 0.9 | 2.6 | 0.00 | 0.05 | 0.05 | 85 | 1004.7 |
| 20260505014522 | 44 | 336 | 0.9 | 2.6 | 0.00 | 0.24 | 0.05 | 85 | 1004.3 |
| 20260505014025 | 44 | 315 | 0.0 | 2.6 | 0.00 | 0.24 | 0.05 | 85 | 1004.4 |
| 20260505013518 | 44 | 317 | 0.9 | 2.6 | 0.00 | 0.24 | 0.05 | 85 | 1004.4 |
| 20260505013107 | 44 | 15 | 0.0 | 2.6 | 0.00 | 0.05 | 0.05 | 85 | 1004.7 |
| 20260505013020 | 44 | 317 | 0.9 | 2.6 | 0.00 | 0.24 | 0.05 | 85 | 1004.4 |
| 20260505012528 | 44 | 318 | 0.9 | 1.7 | 0.00 | 0.24 | 0.05 | 85 | 1004.4 |
| 20260505012027 | 44 | 315 | 0.0 | 1.7 | 0.00 | 0.24 | 0.05 | 85 | 1004.5 |
| 20260505011554 | 43 | 317 | 0.0 | 1.7 | 0.00 | 0.05 | 0.05 | 85 | 1004.8 |
| 20260505011512 | 44 | 317 | 0.9 | 1.7 | 0.00 | 0.24 | 0.05 | 85 | 1004.4 |
| 20260505011017 | 44 | 278 | 0.0 | 0.9 | 0.00 | 0.24 | 0.05 | 84 | 1004.5 |
| 20260505010529 | 44 | 278 | 0.0 | 0.9 | 0.00 | 0.24 | 0.05 | 84 | 1004.6 |
| 20260505010107 | 44 | 278 | 0.0 | 0.0 | 0.00 | 0.05 | 0.05 | 84 | 1005.0 |
| 20260505010024 | 44 | 278 | 0.0 | 0.0 | 0.00 | 0.24 | 0.05 | 84 | 1004.6 |
| 20260505005535 | 44 | 278 | 0.0 | 0.0 | 0.00 | 0.24 | 0.05 | 84 | 1004.5 |
| 20260505005019 | 44 | 278 | 0.0 | 0.0 | 0.00 | 0.24 | 0.05 | 84 | 1004.5 |
| 20260505004550 | 44 | 278 | 0.0 | 0.0 | 0.00 | 0.05 | 0.05 | 83 | 1004.8 |
| 20260505004525 | 45 | 278 | 0.0 | 0.0 | 0.00 | 0.24 | 0.05 | 83 | 1004.4 |